Regional Weather Roundup
Issued by NWS

Home | Current Version | Previous Version | Text Only | Print | Product List | Glossary Off
Versions: 1 2 3 4 5 6 7 8 9 10 11 12 13 14 15 16 17 18 19 20 21 22 23 24 25 26 27 28 29 30 31 32 33 34 35 36 37 38 39 40 41 42 43 44 45 46 47 48 49

000
ASUS45 KSLC 021210
RWRUT
UTAH REGIONAL WEATHER ROUNDUP
NATIONAL WEATHER SERVICE SALT LAKE CITY UT
600 AM MDT SUN AUG 02 2015

UTZ001>011-023>025-021300-

NORTHERN UTAH

CITY           SKY/WX    TMP DP  RH WIND       PRES   REMARKS
BRIGHAM CITY   CLEAR     61  47  59 CALM      30.00S
HILL AFB       CLEAR     66  37  33 E18       30.02S
LOGAN          CLEAR     54  41  61 CALM      30.04S
OGDEN          CLEAR     66  37  34 S6        29.99S
PROVO AIRPORT  PTCLDY    63  39  42 E5        30.03S
SALT LAKE CITY PTCLDY    67  43  41 SE6       29.99R
VERNAL         CLEAR     65  39  38 CALM      30.11R
WENDOVER       CLOUDY    75  32  20 CALM      30.00R
HEBER CITY     CLEAR     48  39  71 CALM      30.13S
WEST JORDAN    CLEAR     61  36  39 CALM      30.02S

$$

UTZ012>022-026-027-021300-

SOUTHERN/CENTRAL UTAH

CITY           SKY/WX    TMP DP  RH WIND       PRES   REMARKS
BLANDING       CLOUDY    61  60  94 CALM      30.26S
BRYCE CANYON   MOCLDY    54  47  77 W5        30.26F
CEDAR CITY     CLOUDY    68  50  52 S8        30.10R
DELTA          CLOUDY    68  29  23 NE3       30.02S
HANKSVILLE     PTCLDY    70  52  52 NE8       30.05S
MILFORD        CLOUDY    69  47  45 S5        30.04S
MOAB/CYNLANDS  CLEAR     70  52  52 NE9       30.05S
PRICE          PTCLDY    69  49  48 E6        30.16R
ST GEORGE      SUNNY     75  54  46 SE6       29.97R
KANAB          MOCLDY    63  55  77 NE3       30.14S

$$

REGIONAL REPORTS     COLORADO/ARIZONA

CITY           SKY/WX    TMP DP  RH WIND       PRES   REMARKS
CRAIG, CO      CLEAR     48  41  76 CALM      30.20R
GRAND JUNCTION CLOUDY    70  51  51 E12       30.09S
RIFLE          MOCLDY    65  48  54 CALM      30.16R
MONTROSE       LGT RAIN  64  55  72 E5        30.19R
CORTEZ         LGT RAIN  63  58  83 CALM      30.20R
PAGE, AZ       CLOUDY    76  55  48 SE6       30.03R
GRAND CANYON   MOCLDY    57  54  89 CALM      30.20F
KINGMAN        MOCLDY    73  54  51 CALM      30.00R
FLAGSTAFF      MOCLDY    55  52  89 CALM      30.25S

$$

REGIONAL REPORTS    NEVADA/IDAHO/WYOMING

CITY           SKY/WX    TMP DP  RH WIND       PRES   REMARKS
LAS VEGAS, NV  PTCLDY    79  54  41 CALM      29.86F
ELY            CLOUDY    64  42  44 W5        30.18F
ELKO           MOCLDY    62  40  44 CALM      30.11R
POCATELLO, ID  CLEAR     55  40  56 NE7       30.04R
BURLEY         CLEAR     55  44  66 E3        29.98R
EVANSTON, WY   PTCLDY    59  29  31 E8        30.23R
ROCK SPRINGS   PTCLDY    58  25  28 W6        30.19S
KEMMERER       PTCLDY    50  30  46 N8        30.25S

$$



USA.gov is the U.S. government's official web portal to all federal, state and local government web resources and services.